COSMOS 2132

Satellite information

Favourite Embed

Satellite Type and Status

PAYLOADIN ORBIT

Key statistics

Satellite COSMOS 2132 at a glance.

Uptime

12509

Days in orbit

Revolutions

≈ 12.6

Per day

Orbit

LEO

Low Earth Orbit

Inclination

74.0

Latest

Satellite identification and parameters

Extended collection of information and parameters for COSMOS 2132.

Object identification

Identified? True

Debris? False

Object name: COSMOS 2132

International designator: 1991-009H

Object number (NORAD): 21107

Object ID (CCSDS): 21107

Country: COMMONWEALTH OF INDEPENDENT STATES (CIS)

Current information (Y/N): Y

RCS size: MEDIUM

Orbital parameters

Period: 114.696 minutes

Inclination: 74.03 deg

SMA: 7819.734 km

Apoapsis: 1468.358 km

Periapsis: 1414.84 km

RAAN: 321.7274 deg

Eccentricy: 0.003422

Argument of periapsis: 191.6899 deg

Mean anomaly: 180.2689 deg

Mean motion: 12.55494352 rev/day

Mean motion (dot): 0.0 rev/day2

B* drag term: 0.00010045 1/REarth

Two-line elements (TLE)

Creation date: May 12, 2025, 2:31 a.m.

Reference frame: TEME

Reference center: EARTH

Epoch: May 11, 2025, 7:37 p.m. UTC

TLE line 0: 0 COSMOS 2132

TLE line 1: 1 21107U 91009H 25131.81746068 .00000000 00000-0 10045-3 0 9995

TLE line 2: 2 21107 74.0300 321.7274 0034220 191.6899 180.2689 12.55494352569427

Live tracking on map

Real-time ground track for satellite COSMOS 2132.

In-orbit conjunctions

There are no conjunctions computed for COSMOS 2132, at the moment. Check back to stay up to date, as we update our databases every day.

Go to all conjunctions

Associated space launch

Military communications satellites

COSMOS 2132 was lifted into orbit during the mission ‘Kosmos-3M | Strela-1M 353-360’, on board a Kosmos-3M space rocket.

The launch took place on Feb. 12, 1991, 2:44 a.m. from 133/3 (133L).

For more information about the launch, click the button.

Launch to space Kosmos-3M | Strela-1M 353-360
Kosmos-3M | Strela-1M 353-360

Agency: N/A

Status: Launch Successful

Launch date: Feb. 12, 1991, 2:44 a.m. UTC

Rocket: Kosmos-3M

Launch pad: 133/3 (133L)

Location: Plesetsk Cosmodrome, Russian Federation

...

Latest news about this satellite

There are no fresh news available about this satellite. Check back as we update our databases every day.


Newsletter sign-up

Weekly statistics, charts and insights to help you stay on top of the space industry.